This demonstration page uses our WeatherBlox Daily Observations layout. Learn more.

38.89511, -77.03637

Hourly Observations for December 31, 2017

Temp ( °F °C ) Dew Point ( °F °C ) Humidity (%) Winds ( mph kmh ) Pressure ( in mb ) Visibility ( mi km ) Precip ( " mm )
12:52 am 00:52 Mostly Clear 22 -5.6 6 -14.4 50 50 NW 12 19 30.25 1024 10 16.0934 0 0
1:52 am 01:52 Mostly Clear 21 -6.1 3 -16.1 45 45 WNW 9 15 30.26 1025 10 16.0934 0 0
2:52 am 02:52 Clear 20 -6.7 3 -16.1 48 48 NW 13 20 30.28 1025 10 16.0934 0 0
3:52 am 03:52 Clear 20 -6.7 2 -16.7 45 45 NW 9 15 30.3 1026 10 16.0934 0 0
4:52 am 04:52 Partly Cloudy 19 -7.2 2 -16.7 47 47 WNW 12 19 30.31 1026 10 16.0934 0 0
5:52 am 05:52 Partly Cloudy 19 -7.2 2 -16.7 47 47 NW 13 20 30.34 1028 10 16.0934 0 0
6:52 am 06:52 Mostly Cloudy 19 -7.2 2 -16.7 47 47 NW 7 11 30.34 1027 10 16.0934 0 0
7:52 am 07:52 Mostly Cloudy 18 -7.8 2 -16.7 49 49 VRB 7 11 30.38 1029 10 16.0934 0 0
8:52 am 08:52 Mostly Cloudy 19 -7.2 3 -16.1 49 49 NW 10 17 30.39 1029 10 16.0934 0 0
9:52 am 09:52 Mostly Cloudy 20 -6.7 2 -16.7 45 45 NNW 16 26 30.39 1029 10 16.0934 0 0
10:52 am 10:52 Cloudy 21 -6.1 0 -17.8 39 39 N 17 28 30.37 1028 10 16.0934 0 0
11:52 am 11:52 Cloudy 22 -5.6 0 -17.8 38 38 NW 14 22 30.37 1029 10 16.0934 0 0
12:52 pm 12:52 Cloudy 23 -5 1 -17.2 38 38 NNW 14 22 30.37 1028 10 16.0934 0 0
1:52 pm 13:52 Cloudy 22 -5.6 -1 -18.3 36 36 NW 21 33 30.37 1028 10 16.0934 0 0
2:52 pm 14:52 Cloudy 21 -6.1 1 -17.2 41 41 NNW 18 30 30.37 1029 10 16.0934 0 0
3:52 pm 15:52 Cloudy 20 -6.7 5 -15 52 52 NNW 16 26 30.38 1029 10 16.0934 0 0
4:52 pm 16:52 Mostly Cloudy 19 -7.2 6 -14.4 57 57 NW 10 17 30.38 1029 10 16.0934 0 0
5:52 pm 17:52 Mostly Cloudy 20 -6.7 3 -16.1 48 48 NNW 15 24 30.4 1029 10 16.0934 0 0
6:52 pm 18:52 Mostly Clear 19 -7.2 5 -15 54 54 NW 10 17 30.4 1030 10 16.0934 0 0
7:52 pm 19:52 Clear 19 -7.2 4 -15.6 51 51 NW 10 17 30.42 1030 10 16.0934 0 0
8:52 pm 20:52 Clear 18 -7.8 4 -15.6 54 54 NNW 8 13 30.42 1030 10 16.0934 0 0
9:52 pm 21:52 Clear 17 -8.3 2 -16.7 51 51 NNW 10 17 30.43 1030 10 16.0934 0 0
10:52 pm 22:52 Clear 17 -8.3 2 -16.7 51 51 NNW 8 13 30.44 1031 10 16.0934 0 0
11:52 pm 23:52 Clear 17 -8.3 2 -16.7 51 51 NNW 14 22 30.44 1031 10 16.0934 0 0

Powered by AerisWeather